Wind_Speed
7 8 6 7 7 6 8 10 11 14 15 12 15 18 18 17 21 26 23 15 16 18 18 17 13 11 10 7 7 7 5 6 5 4 4 4 3 2 3 4 6 7 7 8 8 9 10 11 13 15 15 18 20 17 13 13 13 14 16 18 18 19 20 21 22 23 23 24 25 25 25 25 26 25 25 25 25 24 23 24 24 22 23 24 24 24
6 9 7 6 8 9 10 9 11 17 16 13 14 15 15 17 18 20 18 14 14 17 18 16 13 13 11 9 7 5 5 5 5 5 6 5 4 4 3 4 5 6 7 8 9 9 10 11 13 15 16 19 20 17 11 9 12 15 17 19 19 19 20 20 22 23 24 26 27 28 28 28 28 28 28 29 29 27 26 28 27 25 26 27 27 27
6 9 10 8 8 9 9 8 11 13 12 13 14 14 14 15 16 17 17 12 13 17 17 14 14 14 11 10 6 3 3 3 4 6 6 5 4 5 5 4 6 7 8 9 9 10 10 11 13 15 17 19 19 17 14 13 14 16 18 20 20 20 21 21 21 22 23 24 26 28 29 30 30 31 30 31 32 31 31 31 30 28 28 27 27 28
7 11 12 9 8 7 6 5 6 6 7 10 11 12 13 14 15 18 17 14 13 15 16 14 15 15 10 9 7 4 4 5 4 4 4 3 3 4 4 4 4 5 7 8 9 10 11 12 13 15 17 18 18 17 16 16 16 17 18 19 20 21 22 22 22 22 23 24 25 26 27 28 30 31 32 32 32 33 33 33 33 33 31 28 26 27
8 12 12 11 8 6 4 2 2 4 5 6 7 10 12 12 12 15 15 13 12 13 14 14 14 14 11 8 6 5 5 5 5 3 3 3 4 5 4 2 2 4 5 7 8 10 12 14 15 16 16 16 16 16 17 17 17 17 18 19 20 21 22 23 24 24 25 25 26 26 26 27 28 29 31 32 32 34 34 34 34 35 35 33 31 30
11 13 12 10 10 8 5 3 2 2 2 2 4 7 9 8 9 12 14 14 13 11 13 15 13 12 11 9 6 4 4 4 3 3 3 4 4 4 2 1 2 4 6 7 9 10 11 13 14 15 15 15 15 15 16 17 18 19 20 20 21 22 22 23 24 25 26 27 28 28 28 28 28 29 29 30 31 33 34 35 34 34 35 35 34 34
12 15 12 10 12 11 9 7 6 4 3 3 2 3 4 6 7 9 12 13 12 10 12 15 12 10 11 10 7 5 5 5 4 4 4 3 3 2 1 3 4 6 7 8 10 11 11 12 12 13 14 15 15 15 16 17 18 19 20 20 21 22 22 22 23 23 24 25 27 28 29 30 30 30 30 30 31 31 33 35 35 35 35 35 35 36
12 15 14 16 16 14 13 11 10 8 7 7 7 6 6 6 6 7 10 11 11 11 12 14 12 9 9 9 8 6 5 4 4 3 2 1 2 2 3 5 6 7 8 9 11 11 12 12 12 13 13 14 14 15 16 17 18 18 19 20 21 22 22 23 24 24 25 25 26 26 28 29 30 30 31 31 31 31 32 34 35 36 36 36 35 36
13 15 16 18 19 17 17 15 14 13 12 12 11 11 9 7 6 8 9 9 9 10 10 10 11 8 8 7 7 6 5 4 4 4 3 3 3 4 6 7 8 8 8 9 11 11 11 12 12 12 12 13 13 14 15 16 17 17 18 19 21 22 23 25 25 26 27 27 27 27 27 27 28 29 30 31 31 31 31 32 34 35 36 37 37 36
13 15 15 17 19 20 19 19 18 17 16 16 15 15 13 11 9 9 9 8 7 8 8 6 8 8 6 6 6 6 6 5 6 6 6 6 6 7 8 9 10 10 8 7 9 11 12 12 12 12 11 12 13 13 14 15 16 16 18 19 20 22 23 24 25 26 27 28 28 28 28 28 28 29 29 30 31 32 32 32 33 34 36 37 38 38
12 13 14 15 15 18 20 19 18 18 17 19 19 18 17 16 12 11 10 7 6 6 7 6 6 6 5 6 7 7 6 5 6 7 7 8 8 8 9 10 11 11 9 8 8 10 12 11 11 11 11 12 13 13 14 15 16 17 18 19 20 21 22 23 25 26 27 28 29 29 29 29 29 29 30 30 31 32 33 33 34 34 35 36 37 38
13 13 13 12 11 15 18 17 16 15 14 17 19 17 16 15 12 10 8 6 5 5 7 5 3 3 3 5 6 7 7 7 7 7 6 7 7 7 8 10 11 10 9 9 9 10 12 12 11 12 12 13 14 14 15 16 17 18 18 19 20 22 23 24 25 26 27 28 29 30 30 30 31 31 31 31 32 32 33 34 34 34 35 35 36 37
12 12 12 11 9 11 14 14 14 13 11 13 16 13 11 11 10 9 7 4 3 5 5 2 0 1 2 3 3 5 5 5 6 5 5 6 6 6 7 10 11 9 8 9 9 10 11 12 12 12 13 14 15 15 16 16 17 18 19 20 21 22 23 24 25 26 27 28 29 30 31 31 31 31 32 32 33 33 33 33 34 34 34 34 35 35
9 10 10 10 9 10 11 10 10 10 9 10 11 10 8 8 9 8 6 4 4 5 3 1 1 1 4 6 5 5 4 3 3 4 5 6 6 6 6 8 10 9 8 8 9 10 11 12 13 13 14 15 16 16 17 18 18 19 20 20 22 22 23 24 25 26 27 27 28 29 30 31 31 32 32 32 33 34 34 34 34 34 34 34 34 34
8 8 8 9 10 11 9 8 8 9 9 8 8 7 7 7 6 5 5 4 5 5 3 4 5 6 6 6 5 4 3 2 2 4 4 4 6 7 8 8 8 9 9 9 9 10 11 13 14 14 15 16 17 18 19 20 20 20 21 22 23 23 24 25 25 26 26 27 28 28 29 30 30 31 31 32 33 33 34 34 34 34 34 34 35 35
5 5 7 8 9 9 8 8 8 8 8 7 7 6 5 5 4 4 4 4 4 3 2 4 6 7 6 4 4 3 2 2 3 4 4 3 4 7 9 9 10 9 10 11 11 11 12 14 15 16 17 17 18 19 20 21 21 22 22 23 24 24 25 26 26 26 26 27 27 28 28 29 29 30 31 31 32 33 33 34 34 35 35 35 35 35
6 5 7 7 8 8 8 7 7 8 8 7 6 5 5 5 4 4 4 3 3 1 2 4 4 6 6 5 4 3 3 3 4 5 5 5 6 8 9 10 11 11 11 12 13 12 14 15 16 16 18 18 19 20 21 22 22 23 23 24 24 25 26 26 26 26 27 27 27 28 28 29 29 30 30 30 31 32 32 33 34 34 35 35 35 35
7 7 7 7 7 8 7 7 7 8 7 6 6 6 5 5 4 4 3 3 2 2 3 4 4 4 5 5 5 4 4 4 5 6 6 7 9 10 10 11 11 11 12 13 14 13 14 16 17 17 18 19 20 21 22 23 23 24 24 25 25 26 26 27 27 27 27 27 27 27 28 28 29 29 29 29 30 31 31 32 33 33 34 35 35 35
8 7 7 7 6 6 5 6 6 7 6 5 5 5 3 3 3 3 2 2 1 2 3 3 4 4 4 5 5 4 6 6 6 8 8 8 10 11 11 12 11 12 13 14 15 15 15 16 17 18 19 20 21 22 23 24 25 25 26 26 27 27 27 28 28 28 28 28 28 28 28 28 28 28 28 28 28 29 30 30 31 32 33 34 35 35
9 8 8 7 6 5 4 3 4 6 6 5 5 4 3 2 2 2 1 1 2 3 3 3 5 5 5 6 6 6 8 8 8 9 10 10 10 11 12 12 12 13 15 15 16 17 17 17 18 19 20 21 22 23 24 25 26 27 27 28 28 28 28 29 29 29 29 29 29 29 28 28 28 27 27 27 27 28 29 29 29 30 31 33 34 35
9 8 8 7 6 5 4 3 3 5 4 3 3 3 3 4 3 3 3 1 1 2 4 5 5 6 6 6 7 8 9 9 10 10 11 12 12 12 13 14 14 14 16 17 18 18 18 19 19 20 21 22 23 24 25 26 27 28 28 29 29 29 29 30 30 30 30 30 29 29 29 28 28 27 27 27 27 27 28 28 29 29 29 30 32 34
9 10 9 8 7 6 4 3 2 3 3 3 2 2 3 4 4 4 3 3 4 3 4 6 6 7 9 9 9 11 11 11 11 11 12 12 13 13 14 15 16 16 16 17 18 18 19 19 20 21 22 23 24 25 26 27 28 28 29 30 30 30 30 31 31 31 31 30 30 30 29 29 28 28 27 27 27 27 27 27 28 28 28 29 30 32
8 9 10 10 8 5 4 3 2 2 3 3 3 3 4 4 4 4 3 4 6 5 4 7 9 8 10 12 11 11 12 13 13 12 13 13 13 14 14 15 16 17 17 17 18 19 19 20 21 22 22 24 25 25 26 28 29 29 29 30 31 31 31 31 32 32 31 31 30 30 30 29 29 28 28 28 27 27 27 27 27 28 29 29 29 30
6 7 7 7 7 5 4 3 2 1 1 2 2 3 4 4 4 5 4 4 6 5 4 8 11 8 9 12 11 11 11 13 14 13 13 14 13 15 16 15 15 16 17 17 17 19 20 21 22 23 23 24 25 25 26 27 29 29 29 30 31 32 32 32 32 33 33 32 31 31 31 31 30 29 29 29 28 27 27 27 27 28 29 29 29 30
6 7 7 6 6 6 6 4 3 2 1 1 0 1 2 3 4 6 6 5 6 6 7 11 11 8 9 11 11 12 11 10 12 13 13 14 14 14 15 15 15 15 16 17 18 19 21 22 23 24 24 25 25 26 27 28 29 30 30 30 31 32 32 32 32 33 33 33 32 32 32 32 31 31 31 31 30 29 28 28 28 28 28 29 30 30
7 8 7 7 7 8 7 6 5 4 4 3 2 1 2 3 4 6 7 7 8 8 9 13 11 9 11 12 12 13 12 10 11 11 12 13 13 14 15 15 16 16 17 18 20 21 22 23 24 25 26 26 26 27 28 30 31 31 31 32 33 33 34 33 33 33 33 34 33 33 33 33 32 32 32 32 32 31 30 29 29 29 29 30 30 31
6 7 7 7 7 7 7 7 7 6 6 4 3 3 3 4 5 6 7 8 9 8 7 10 11 11 13 12 12 13 14 13 13 12 13 13 13 14 15 15 17 18 19 20 21 22 23 24 25 26 27 27 28 28 30 31 32 33 34 34 35 35 36 35 35 35 34 34 34 34 34 34 34 33 33 33 33 32 32 31 31 30 30 30 31 32
7 7 6 6 6 6 7 7 7 7 7 6 5 5 5 5 6 6 7 7 9 10 8 7 10 13 14 13 12 13 13 13 13 13 14 14 14 15 15 16 18 19 20 21 22 23 24 25 26 27 28 29 29 30 31 32 33 34 35 36 36 37 38 38 37 37 36 35 34 34 35 35 34 35 34 34 33 33 33 32 32 32 32 32 32 33
8 8 7 6 6 6 7 7 7 7 7 7 7 7 7 7 7 7 8 8 9 10 9 8 10 12 13 13 13 13 14 14 14 15 15 15 16 16 17 18 19 20 21 22 23 24 25 25 26 27 28 30 30 31 32 32 33 35 36 37 38 39 40 40 40 39 38 37 36 35 35 35 35 35 35 35 35 35 34 34 34 33 34 34 34 34
9 8 8 7 7 7 7 7 8 8 8 7 7 8 8 8 8 9 8 9 9 10 10 11 11 11 12 13 13 13 14 16 16 17 18 18 19 19 19 20 20 22 23 24 25 26 26 27 28 28 29 30 31 32 33 33 34 35 36 38 39 40 41 42 41 40 38 37 37 36 35 35 35 35 35 36 36 35 35 35 35 35 35 36 36 36
8 8 8 8 7 7 8 8 8 8 8 8 8 8 8 9 9 10 10 10 11 11 11 12 12 11 11 13 14 14 15 16 17 17 18 20 21 21 22 22 23 24 25 26 27 28 28 28 29 30 30 31 32 33 34 34 35 36 37 38 39 41 41 41 41 39 38 36 36 35 35 34 34 34 35 35 35 36 36 37 37 37 37 37 38 38
9 9 9 9 9 9 9 9 8 9 8 6 7 8 9 10 11 11 11 11 11 12 12 13 13 13 12 13 14 15 16 16 17 17 18 19 20 22 23 24 25 25 26 26 27 28 29 30 30 31 31 32 33 34 35 35 36 37 38 39 39 41 41 40 39 37 36 35 34 34 34 33 34 34 34 35 35 36 37 37 37 37 38 39 40 41
10 10 11 11 12 11 10 10 10 10 7 6 9 10 10 11 13 13 12 10 10 11 11 12 13 13 13 14 14 15 15 16 17 17 18 19 20 21 22 23 24 25 25 26 27 28 30 31 31 32 32 33 34 34 35 35 36 37 38 39 40 40 39 38 37 35 34 33 33 33 33 33 33 34 34 35 35 36 37 37 38 39 41 42 44 45
11 12 12 13 13 12 12 11 11 11 9 9 11 12 11 12 13 14 13 12 11 11 11 11 11 12 13 13 14 14 15 15 16 17 18 19 20 21 22 23 24 24 25 26 27 28 30 31 32 32 32 33 34 34 35 35 36 37 38 39 39 38 38 37 36 35 34 33 33 33 33 33 33 33 34 34 35 37 39 41 42 44 45 46 47 48
12 12 13 13 13 13 13 13 13 12 10 10 11 11 12 13 14 14 13 12 11 11 10 9 11 11 12 12 13 14 15 15 15 16 18 20 21 22 23 24 24 25 26 27 28 28 30 31 32 31 31 32 33 33 35 36 37 37 37 37 38 37 37 36 35 34 34 34 34 34 33 33 33 34 35 37 39 42 43 45 46 47 48 49 49 49
13 13 13 13 13 13 14 15 15 14 11 9 11 13 13 14 14 13 13 12 10 10 9 9 10 11 11 12 13 14 14 15 15 16 18 19 20 22 23 24 25 26 27 28 29 29 29 30 31 31 31 31 32 33 35 36 36 36 36 37 38 37 37 36 35 34 34 34 33 33 33 33 34 36 39 41 44 46 47 48 49 49 50 50 50 50
14 14 14 14 14 14 15 15 16 18 16 13 12 13 15 16 15 14 13 12 9 10 10 10 11 11 11 12 13 14 15 15 15 15 17 18 19 21 23 24 26 27 27 28 28 29 28 28 29 30 30 31 33 34 34 34 35 36 37 37 37 37 36 35 35 34 33 32 32 32 33 36 38 40 43 45 47 49 50 51 52 52 51 51 50 50
14 14 14 15 15 15 15 15 16 17 17 16 15 16 17 17 17 16 14 10 7 9 10 10 11 11 11 12 13 14 16 17 17 16 18 20 21 23 24 25 26 27 27 27 27 28 29 29 29 30 31 32 33 32 32 33 34 35 36 36 36 35 35 34 33 32 31 31 32 34 37 39 42 44 46 49 51 52 53 54 54 53 52 51 50 50
14 14 15 15 15 15 15 15 16 17 16 16 17 18 19 18 17 16 13 10 9 10 9 10 10 10 12 13 14 14 15 17 19 19 20 22 23 24 25 25 26 27 28 28 28 29 30 30 31 32 32 31 31 31 32 33 34 35 34 34 34 34 33 32 32 31 32 33 35 37 39 42 44 47 49 52 53 55 55 55 54 52 51 50 49 49
12 12 13 14 16 17 17 17 18 19 17 16 17 18 19 19 18 16 14 12 12 10 9 10 10 10 12 13 14 16 16 17 19 21 21 23 24 25 25 26 26 27 28 29 29 29 30 30 31 31 31 31 31 32 33 33 33 33 33 33 33 32 32 32 32 33 34 36 37 39 41 44 47 50 52 54 56 57 57 55 53 51 49 49 48 47
14 13 13 13 15 17 18 18 19 19 18 18 19 18 18 18 17 17 16 14 12 10 9 9 9 10 13 14 15 17 18 19 20 22 23 24 25 26 27 27 27 27 27 28 28 29 29 30 30 30 30 31 32 32 32 32 32 33 33 33 32 32 32 32 33 35 37 38 39 41 43 46 49 51 54 57 59 59 58 56 52 49 47 45 44 43
15 16 16 16 16 19 21 20 21 20 19 19 20 19 18 18 18 17 17 14 11 10 10 8 8 9 12 14 15 16 18 19 21 23 24 25 26 26 26 26 26 25 25 25 25 25 26 27 28 29 30 31 31 31 31 31 31 32 32 32 32 31 32 32 34 36 39 40 42 43 45 48 50 53 56 59 62 62 60 55 50 47 44 42 40 39
14 15 18 18 17 20 22 23 23 22 20 19 20 18 17 17 18 18 18 14 11 11 11 10 10 10 12 14 15 16 18 19 21 23 24 25 26 25 25 24 24 24 24 24 24 24 25 26 28 30 31 31 31 31 31 31 31 32 32 32 32 32 33 34 36 38 40 42 44 46 48 50 53 55 58 61 64 64 60 53 47 45 42 38 36 36
14 15 17 17 16 17 19 22 24 24 20 18 19 19 17 16 15 17 18 17 14 12 12 12 12 12 12 14 15 17 18 20 21 23 25 25 24 24 23 23 23 24 25 25 25 26 27 28 29 30 31 31 31 32 32 32 33 33 33 34 34 34 35 36 38 40 42 45 47 48 50 52 55 57 60 63 65 65 60 52 45 42 39 36 34 35
13 15 17 18 17 16 18 21 24 25 22 18 17 17 17 15 14 14 17 18 17 15 14 14 15 14 14 15 16 18 20 22 23 24 24 23 23 22 22 23 24 25 26 26 27 27 28 28 28 29 30 31 32 33 33 34 34 34 34 34 35 36 37 39 41 43 45 46 49 51 53 54 57 58 60 63 65 64 59 50 44 41 38 35 34 34
13 13 17 19 18 18 19 19 20 22 24 21 17 16 16 15 14 13 14 16 17 17 15 16 17 17 17 17 18 20 21 23 24 24 24 23 22 23 24 25 25 26 27 27 28 28 28 29 29 30 31 32 33 34 34 35 35 35 35 35 36 37 39 42 44 46 47 48 50 53 55 56 58 59 61 62 63 62 57 49 44 42 39 37 36 36
17 17 19 19 18 19 20 20 20 20 22 21 18 17 16 15 14 14 15 15 16 16 16 16 16 17 18 18 19 21 22 23 23 23 23 22 23 25 27 27 27 26 27 27 28 29 30 30 31 32 33 33 34 35 36 36 36 37 37 37 38 39 41 43 45 47 48 50 52 54 56 58 59 60 62 62 61 59 54 49 47 46 44 41 40 38
20 20 21 20 19 20 20 20 21 22 23 21 18 17 17 17 15 14 15 16 16 16 17 16 16 17 18 19 20 21 22 23 23 23 23 24 25 27 28 28 27 27 27 28 29 30 31 32 33 33 34 34 35 36 36 36 36 37 37 38 39 41 43 45 47 49 50 51 53 55 57 59 60 62 62 61 59 57 52 48 47 48 46 45 42 40
20 20 21 20 20 21 21 19 19 23 25 23 19 17 18 19 18 16 16 16 16 17 17 17 17 17 18 19 21 22 23 24 23 22 23 25 27 27 27 27 27 27 28 28 29 30 32 33 34 34 35 35 36 36 36 36 36 37 38 40 42 44 46 48 49 51 52 52 54 56 57 59 61 62 61 57 55 55 53 48 46 46 45 46 46 45
20 20 20 21 20 21 22 20 18 21 26 26 22 19 18 18 19 18 17 17 17 17 17 18 19 19 19 19 20 21 22 23 22 22 23 25 27 27 27 26 26 26 27 28 29 31 32 33 34 35 36 36 36 37 37 37 38 39 40 42 44 45 47 49 50 52 53 54 55 56 57 59 59 59 59 55 51 53 54 50 46 46 47 48 49 48
21 20 20 21 21 22 23 22 19 21 25 26 25 22 20 19 18 18 17 18 19 19 19 20 21 21 21 22 22 21 21 21 21 22 24 26 26 26 26 25 26 26 26 28 29 31 32 33 34 35 36 36 37 37 38 38 39 40 40 42 43 45 48 49 51 52 53 55 56 56 56 58 58 57 58 57 54 55 57 53 49 48 49 49 49 48
Wind_Direction
325 338 24 15 326 280 268 256 245 263 269 253 234 230 231 225 225 236 242 236 226 233 248 254 260 266 265 270 269 269 277 281 286 289 305 323 334 328 331 352 1 353 346 347 347 345 341 337 334 332 333 337 336 326 303 286 288 298 306 307 302 296 293 289 288 290 293 297 300 300 299 297 295 294 291 291 289 287 289 294 298 293 287 284 281 278
0 1 346 329 309 289 284 272 241 247 260 262 250 245 239 228 234 236 221 214 222 232 247 255 263 270 269 262 252 250 262 284 298 295 300 311 315 306 312 358 11 360 357 9 17 7 353 344 339 337 338 343 347 350 339 312 304 308 313 316 316 312 308 303 297 295 293 293 294 295 296 296 296 294 292 291 290 288 287 288 292 294 291 289 286 284
335 340 334 333 315 303 299 279 254 253 255 257 257 260 253 236 235 228 214 226 246 245 248 254 262 267 262 258 261 260 267 307 318 298 292 299 317 315 316 348 6 10 11 15 16 5 352 346 341 339 339 340 342 346 343 331 322 319 319 320 320 317 316 313 309 306 302 298 296 294 294 294 294 293 292 291 290 289 289 287 289 293 292 289 286 283
332 330 337 336 317 316 321 287 263 251 242 254 253 249 250 243 238 237 238 244 240 240 248 250 254 257 250 246 249 254 276 309 319 300 294 306 315 300 294 322 354 12 14 10 1 349 343 341 338 336 336 335 335 337 337 335 332 328 326 324 322 321 319 317 315 312 308 303 299 296 295 294 294 293 293 293 292 290 289 288 288 288 288 287 285 284
346 338 341 347 347 347 345 306 251 202 220 258 250 233 234 237 240 238 233 226 218 227 241 243 244 249 252 249 239 234 252 281 303 304 290 284 277 268 272 304 350 2 5 358 346 341 339 337 335 333 333 334 335 337 338 337 336 334 332 329 326 324 322 319 317 314 312 308 305 303 300 298 296 295 293 292 291 290 289 289 288 286 284 285 286 287
355 354 349 2 18 23 40 49 53 155 207 276 235 225 221 219 226 223 216 218 221 219 225 234 239 245 254 259 254 229 224 241 263 262 245 243 246 246 264 318 347 352 351 345 338 337 337 334 332 333 335 337 338 340 340 340 341 340 339 336 333 330 326 323 319 316 314 311 309 307 306 305 303 300 298 296 294 292 292 292 290 287 285 285 284 285
6 10 10 34 41 42 59 58 43 47 43 56 138 183 171 174 192 202 203 209 212 203 211 223 227 239 249 252 255 240 222 222 223 225 224 232 249 258 316 338 342 345 342 340 339 338 337 336 335 336 338 340 341 345 348 349 349 348 346 343 339 336 334 331 329 325 323 320 316 313 311 310 308 307 304 302 300 297 295 295 294 292 289 287 285 282
28 29 38 57 57 52 58 60 57 60 67 80 89 96 114 146 165 168 176 192 196 193 206 211 212 245 262 246 247 252 244 236 233 241 245 267 295 310 337 341 338 342 344 343 341 338 339 341 341 341 341 343 348 353 356 357 357 355 353 350 346 344 342 341 340 337 335 332 328 325 321 318 315 313 311 308 306 303 299 297 295 295 293 291 288 284
44 44 48 60 65 62 60 63 68 70 76 84 84 83 91 113 132 140 155 172 183 190 204 206 208 244 264 243 247 261 264 270 285 306 309 300 312 328 340 343 339 341 345 345 341 337 340 342 342 343 345 348 354 357 359 360 359 358 355 352 350 349 347 346 345 343 341 339 337 334 332 328 325 322 319 315 312 309 305 301 297 295 293 292 290 287
54 53 50 55 65 69 67 66 68 71 76 82 83 82 83 88 105 126 141 151 165 184 194 197 218 244 248 233 239 251 265 282 295 311 318 316 329 338 339 342 340 336 337 345 342 334 338 343 341 342 346 350 353 355 356 356 355 354 352 350 349 348 347 346 345 344 343 341 340 339 337 335 332 329 325 321 318 315 311 307 302 298 295 292 291 288
57 58 55 51 59 71 73 69 68 69 74 79 79 79 79 77 85 109 125 129 132 161 181 186 217 245 253 250 245 249 266 275 276 292 309 317 325 331 334 337 333 328 331 347 348 335 334 338 337 339 344 347 349 349 349 348 348 347 346 345 344 343 342 342 342 341 341 341 341 340 339 338 336 334 331 328 324 320 316 312 308 303 299 294 291 288
56 54 58 61 63 73 75 72 72 70 74 82 80 76 75 70 73 94 106 106 107 140 171 184 206 230 257 265 251 251 266 272 277 293 309 313 313 319 328 327 320 321 330 340 344 336 329 330 334 337 339 342 342 342 342 341 341 341 340 339 338 338 337 337 337 337 338 338 339 339 338 338 337 336 335 333 330 327 322 318 314 310 305 300 296 291
54 51 57 69 72 70 74 76 77 75 75 82 82 77 70 66 75 84 77 73 91 119 142 154 241 186 254 283 267 267 278 283 287 295 297 294 300 318 327 317 311 319 330 332 334 332 328 328 333 336 337 336 335 335 335 335 336 335 335 334 333 333 333 333 333 333 333 334 335 336 336 336 336 335 335 334 333 332 329 325 321 316 311 307 303 299
47 56 58 65 69 67 70 76 82 83 77 72 73 73 63 66 84 79 56 54 63 72 88 41 7 10 331 317 307 304 302 286 271 272 274 288 309 317 307 300 303 313 325 329 329 329 328 329 332 334 333 331 330 331 331 331 331 331 330 330 329 329 329 329 329 329 329 330 331 332 332 333 334 334 334 333 333 333 333 331 328 324 319 315 311 308
39 52 60 64 69 68 66 69 81 89 83 73 75 76 68 69 76 58 41 58 64 60 35 349 340 338 331 318 313 307 288 271 268 273 276 300 321 308 294 297 304 309 317 323 325 326 324 326 329 329 328 329 329 330 330 330 329 328 328 328 327 326 325 326 326 326 326 326 327 328 329 330 331 332 332 332 332 332 333 333 332 330 327 322 318 316
57 61 67 68 71 73 70 68 74 76 75 81 86 77 73 76 59 44 61 73 64 64 9 331 316 314 316 310 304 289 273 303 309 299 302 314 304 291 294 303 306 312 317 317 319 322 320 322 326 325 326 328 329 328 328 327 326 326 326 325 325 324 324 323 324 323 323 324 324 325 325 326 328 329 331 331 331 332 332 333 333 333 331 328 324 321
79 80 77 75 75 78 78 76 72 66 68 79 82 73 82 92 68 55 73 72 51 33 344 326 305 314 325 323 320 315 316 324 311 301 308 305 287 283 290 295 300 309 313 310 315 321 320 319 321 322 323 324 325 325 324 323 323 323 324 324 324 323 322 322 322 321 321 321 321 321 322 323 324 326 328 330 331 331 331 332 333 333 333 332 329 325
73 75 80 82 80 81 83 86 84 77 73 74 81 91 97 95 86 74 77 84 69 360 345 339 319 322 327 320 326 330 318 310 300 295 290 286 285 286 289 293 297 303 304 306 313 317 316 315 317 319 319 320 321 322 320 320 321 321 322 323 322 321 320 319 318 318 317 317 317 317 318 319 320 323 325 327 329 329 330 331 332 333 334 333 332 329
60 67 79 82 83 84 87 93 95 94 94 95 102 110 100 83 89 85 76 82 38 335 335 328 308 318 326 309 303 303 295 288 281 280 278 277 280 283 285 290 295 301 304 306 308 309 310 311 313 315 316 317 319 319 318 319 319 320 321 320 319 319 318 317 316 316 315 314 314 314 314 315 316 319 321 324 326 327 328 329 331 333 333 333 333 332
53 64 76 79 81 83 82 88 98 101 105 112 119 126 124 109 107 116 123 45 356 332 313 298 294 300 304 296 292 284 279 274 270 274 279 281 281 283 287 291 297 300 302 301 301 303 307 309 309 311 314 315 316 316 316 317 317 318 318 317 317 317 316 315 315 314 313 313 313 313 312 311 313 314 317 319 322 324 326 327 329 331 332 333 333 333
47 52 67 75 75 78 77 74 98 112 123 131 129 135 146 153 168 175 177 209 285 299 297 292 288 287 283 283 288 284 277 274 276 278 280 282 284 285 288 292 295 294 294 295 297 300 303 305 307 309 311 312 312 314 314 314 315 316 315 315 315 315 315 314 313 313 312 312 312 312 311 310 310 311 312 314 317 320 322 324 326 328 330 330 331 332
46 43 57 69 68 70 76 77 101 135 162 178 183 189 180 174 180 191 202 215 228 254 276 278 279 284 283 279 279 280 281 281 280 280 281 281 282 283 285 288 289 288 288 290 293 297 300 302 305 308 309 309 310 312 312 312 313 313 314 314 315 314 314 313 313 313 312 312 312 311 310 308 308 307 308 309 312 315 318 321 323 324 326 328 329 330
49 42 52 62 63 62 65 75 96 137 177 194 202 201 200 203 206 220 224 218 232 242 254 270 275 275 276 278 278 278 281 283 283 282 283 281 280 281 280 281 283 286 287 289 292 297 299 301 303 305 306 306 308 310 311 310 311 312 313 314 314 314 314 314 313 313 313 313 312 311 309 308 307 306 305 306 308 310 312 315 318 320 322 324 326 327
47 41 48 55 60 66 63 57 71 98 162 186 203 202 210 222 228 238 237 235 254 249 225 257 268 266 267 272 278 279 279 283 288 288 286 284 283 282 280 279 279 283 288 292 295 297 299 301 301 303 305 306 308 309 309 308 309 310 312 313 313 313 314 314 314 313 313 312 311 310 308 307 307 306 305 304 304 305 307 310 313 314 317 320 322 324
36 39 45 41 39 52 53 36 31 39 37 21 319 269 253 249 245 243 235 237 259 249 226 246 258 264 273 280 285 285 283 282 285 287 288 287 284 283 284 286 286 288 291 294 296 297 298 299 300 302 305 306 308 308 308 308 309 311 313 313 313 313 314 314 314 313 312 312 311 309 308 307 307 306 305 304 303 303 304 305 307 309 311 314 317 320
36 38 42 37 29 31 30 19 12 11 7 4 355 332 293 274 264 252 246 252 257 241 233 251 263 269 276 283 289 291 295 295 289 290 291 291 292 293 294 296 296 297 297 298 300 301 302 303 304 305 307 308 309 309 310 310 311 313 314 314 315 314 314 315 315 313 313 312 311 310 309 309 308 306 305 304 302 302 302 302 304 305 307 309 312 315
35 36 36 34 28 22 18 15 13 5 357 355 346 326 299 284 278 269 267 274 276 269 261 266 274 279 280 283 287 291 296 298 296 298 297 295 298 299 300 303 303 304 305 305 306 307 308 309 309 309 310 310 311 311 311 312 313 315 316 316 317 316 316 316 316 315 314 313 312 310 309 309 309 307 306 304 303 302 301 301 302 303 304 305 308 311
31 32 32 29 25 19 14 14 14 7 358 352 340 326 315 304 297 290 287 284 281 287 293 282 278 285 290 293 294 293 294 293 294 297 299 300 303 304 306 307 308 309 309 309 309 310 310 311 311 311 311 311 311 312 312 313 315 317 318 318 318 317 317 317 316 315 315 314 313 312 310 310 310 308 307 306 304 303 302 301 301 302 303 304 305 307
35 33 29 26 23 18 12 8 5 1 359 355 343 332 324 314 308 301 296 292 287 291 297 290 283 288 294 298 300 301 302 302 301 302 304 305 307 308 309 309 309 310 310 310 311 311 311 312 312 312 312 312 312 312 313 315 317 318 319 319 319 318 319 319 318 317 316 315 313 313 312 311 310 310 309 308 306 305 305 304 303 303 304 304 304 305
40 35 30 28 26 20 14 8 1 356 353 349 343 338 332 322 314 308 304 303 300 300 300 295 292 296 300 301 303 306 308 308 309 311 312 312 311 311 310 310 311 311 311 312 312 312 312 313 312 312 313 312 312 313 315 317 318 319 320 320 320 320 321 321 320 319 317 316 314 314 313 312 312 311 311 310 308 308 307 307 306 305 305 305 305 306
32 30 27 23 22 19 12 7 2 354 345 338 337 336 331 327 323 317 315 316 314 314 311 306 306 310 308 306 308 310 310 309 310 312 313 313 314 315 314 314 313 313 313 313 313 313 313 313 312 313 313 313 313 315 316 318 319 320 320 320 321 322 323 323 322 321 320 318 317 316 315 314 314 313 312 311 311 310 310 309 308 307 307 306 307 307
22 20 19 16 15 13 9 6 2 353 343 337 339 335 326 325 326 321 318 320 320 320 318 315 316 318 314 310 309 309 309 310 311 313 315 314 314 314 314 313 313 313 313 312 312 313 313 313 313 314 315 315 316 317 319 320 321 321 321 323 324 324 325 324 324 323 322 321 320 318 317 317 316 315 315 314 314 314 313 312 311 310 309 309 309 308
16 14 12 11 9 8 6 1 354 348 343 343 345 342 335 329 325 321 319 317 316 316 316 317 320 320 317 314 312 312 312 313 316 320 320 315 313 313 312 312 312 312 312 312 313 313 313 313 314 316 317 318 318 320 321 321 321 322 324 325 326 325 326 326 326 326 325 323 322 320 320 320 320 320 320 319 319 318 317 316 315 313 312 311 310 308
11 9 10 9 4 1 359 354 351 351 349 345 345 343 337 330 324 319 317 315 314 312 310 313 319 320 318 317 316 317 317 319 325 328 323 317 316 316 315 314 314 314 314 315 315 315 314 315 316 318 319 319 320 321 321 322 323 325 326 326 326 327 327 328 329 328 327 326 325 324 324 325 325 326 325 324 323 323 321 320 318 315 314 312 310 307
5 4 6 4 356 353 352 352 353 355 351 343 342 342 335 328 326 321 316 316 315 310 303 307 316 319 320 319 318 318 318 325 333 331 324 321 321 320 318 318 318 318 317 317 317 317 317 317 318 320 320 320 320 321 322 324 325 326 326 326 327 329 330 331 331 330 329 328 328 329 329 329 330 330 330 328 327 326 324 322 320 317 315 313 310 307
360 0 360 357 353 350 352 351 347 347 356 360 348 342 337 332 331 325 318 318 314 304 298 303 311 316 320 321 321 319 321 330 336 332 324 323 321 319 319 320 320 319 320 320 320 319 319 319 320 320 321 320 321 323 325 326 326 327 327 328 329 331 332 332 332 331 331 331 331 331 332 332 332 332 332 330 329 329 327 325 322 320 316 313 310 307
354 356 354 352 352 350 351 350 341 343 359 9 357 345 339 337 337 333 330 329 318 304 305 310 311 312 316 320 321 322 325 330 334 329 323 321 320 319 319 320 320 321 321 321 321 320 320 321 321 321 322 323 324 326 327 327 327 327 329 330 331 333 333 333 333 332 332 332 332 333 333 333 333 333 334 333 333 332 330 327 324 321 317 313 310 307
351 353 352 350 350 350 350 347 338 340 352 357 351 346 341 339 341 339 340 343 325 304 301 302 301 302 307 315 320 322 325 327 328 327 325 324 325 324 323 323 322 321 320 321 322 321 322 324 324 324 325 325 326 328 328 328 328 329 330 332 333 334 334 333 332 332 332 333 334 334 335 335 335 336 336 336 335 334 332 329 326 321 317 313 310 307
348 350 351 348 346 345 347 344 339 344 352 350 345 343 340 341 345 341 339 342 328 310 298 291 293 298 304 312 318 322 326 325 325 328 329 328 329 328 325 324 323 322 322 324 325 325 325 327 327 326 327 328 328 330 330 330 330 331 332 334 334 333 333 332 332 332 333 334 335 336 336 336 337 338 337 337 336 335 334 331 327 323 318 314 311 309
352 352 350 346 341 339 341 342 343 352 359 350 342 341 337 338 344 340 334 334 328 317 302 296 302 306 305 309 317 321 324 324 324 328 331 330 330 329 328 328 327 326 326 327 328 328 328 328 328 328 329 330 331 331 332 333 334 334 334 334 334 333 333 333 334 334 334 335 336 337 337 337 338 339 339 339 339 338 336 334 330 325 321 317 315 313
353 351 349 347 341 335 337 342 345 353 358 348 342 343 338 336 341 339 335 336 332 320 308 304 310 311 307 311 318 319 321 323 325 329 332 332 331 331 331 331 330 329 329 329 329 329 329 329 329 330 331 332 332 333 335 336 335 334 334 335 335 334 334 334 334 334 334 335 336 336 336 337 338 339 340 341 342 341 339 336 331 327 325 323 320 320
349 344 342 344 342 336 338 343 346 351 354 344 339 342 338 334 337 336 334 339 337 323 315 310 309 306 303 307 313 315 317 323 326 328 330 330 330 331 331 331 331 331 331 330 329 328 327 328 329 331 332 334 335 336 337 336 335 334 335 335 335 334 334 334 334 334 334 334 334 334 335 336 337 339 341 343 343 343 341 337 333 331 330 328 327 328
348 341 335 337 340 338 336 336 338 344 349 341 335 340 339 332 333 331 328 332 334 324 316 312 308 302 300 303 308 312 316 322 324 325 327 329 331 333 334 335 335 334 333 333 332 332 332 332 333 334 336 338 338 337 337 337 337 336 335 335 335 334 334 334 333 333 332 332 332 334 335 336 338 340 343 344 344 343 342 338 335 335 334 331 330 332
342 334 327 330 335 334 328 325 330 339 346 342 334 335 336 333 331 326 321 323 326 321 314 309 306 302 300 303 308 313 318 322 324 325 328 331 333 336 337 337 336 335 335 336 335 336 337 338 338 338 339 339 339 338 338 338 338 337 336 336 335 334 334 333 332 331 332 332 333 334 336 338 340 343 345 346 345 344 342 339 336 337 335 330 328 330
340 328 320 324 329 328 322 321 327 333 339 343 338 331 329 329 329 323 317 316 318 317 313 309 307 308 308 309 313 318 322 324 326 327 330 333 335 337 337 337 337 337 337 338 338 338 340 341 341 341 340 340 340 339 339 339 338 337 336 335 334 333 332 332 332 332 333 334 335 335 337 340 342 344 346 347 346 344 343 339 336 336 335 329 324 323
336 323 314 318 323 324 320 322 325 326 328 335 339 330 324 324 323 319 313 310 310 311 310 308 308 311 314 315 318 322 323 324 325 327 330 333 335 336 337 338 339 339 339 339 339 340 342 343 343 342 341 341 341 340 339 339 338 337 336 334 333 332 332 333 333 333 334 335 336 337 339 342 344 345 347 348 347 345 342 339 335 334 333 330 323 317
324 318 312 315 319 319 319 324 328 324 322 329 335 330 323 322 320 316 310 307 306 306 305 305 307 308 310 313 317 319 320 323 326 328 330 333 334 336 338 339 340 341 340 341 341 341 343 344 344 344 343 342 341 340 340 339 338 337 335 333 332 332 333 333 333 333 334 335 337 339 341 343 344 346 348 349 347 345 342 337 331 329 329 327 323 318
316 314 312 315 317 315 317 325 328 322 321 329 336 329 320 319 319 315 312 310 307 305 304 305 304 305 307 312 316 318 320 325 328 329 330 332 334 337 339 339 340 341 341 341 342 342 343 344 344 344 343 342 341 340 339 338 336 334 333 332 332 332 333 333 332 333 335 337 339 341 342 344 345 347 349 348 345 342 340 335 329 325 324 323 321 318
313 311 310 312 314 315 318 326 328 320 319 327 334 328 319 318 317 317 314 311 308 306 305 304 303 305 309 314 318 320 322 325 328 328 329 332 335 337 338 338 339 340 340 341 341 342 342 343 344 343 343 342 340 339 338 336 334 333 332 332 332 332 332 332 333 334 335 337 340 342 344 346 348 349 349 346 339 336 337 336 329 323 320 319 318 317
310 309 309 311 313 314 317 324 327 319 317 322 328 327 320 316 315 315 314 309 306 305 304 304 306 309 312 313 316 319 321 323 326 328 329 332 335 336 336 336 337 338 339 339 340 341 342 342 342 342 342 341 339 337 336 335 333 332 332 332 332 332 332 332 333 334 335 338 341 343 345 347 349 350 349 344 336 333 336 338 332 324 321 320 320 319
306 307 309 311 313 315 316 321 324 318 315 319 323 324 321 315 311 311 309 306 304 305 306 308 310 313 314 315 317 320 321 323 325 326 329 332 334 333 332 333 334 336 338 339 340 340 341 342 341 341 340 339 337 336 335 334 333 332 331 330 330 330 330 331 332 334 336 338 341 343 345 347 349 350 350 347 342 339 339 339 335 329 326 325 325 323
Height
5796 5796 5795 5795 5795 5795 5795 5796 5796 5792 5791 5794 5795 5796 5797 5797 5798 5797 5798 5801 5802 5802 5801 5800 5804 5806 5806 5808 5807 5806 5806 5806 5806 5807 5808 5809 5810 5811 5811 5812 5812 5811 5811 5810 5810 5810 5810 5810 5810 5810 5810 5810 5809 5808 5808 5809 5809 5810 5810 5809 5808 5808 5807 5807 5806 5805 5804 5803 5802 5801 5800 5799 5798 5798 5797 5796 5795 5794 5794 5792 5790 5790 5789 5789 5788 5787
5796 5797 5796 5796 5795 5794 5794 5794 5794 5792 5790 5792 5793 5794 5796 5796 5797 5797 5798 5799 5801 5801 5800 5801 5803 5803 5805 5807 5807 5806 5806 5806 5806 5806 5807 5807 5809 5810 5811 5811 5811 5810 5810 5809 5809 5809 5809 5809 5809 5809 5808 5808 5807 5806 5806 5807 5808 5808 5808 5807 5806 5805 5805 5805 5804 5803 5802 5801 5801 5799 5798 5797 5797 5796 5795 5794 5792 5792 5791 5789 5787 5788 5787 5787 5787 5785
5796 5797 5796 5795 5794 5793 5793 5792 5791 5791 5791 5791 5791 5791 5793 5795 5796 5797 5798 5800 5801 5800 5800 5802 5802 5802 5804 5805 5805 5806 5807 5807 5808 5808 5808 5808 5809 5810 5810 5810 5810 5810 5809 5809 5809 5809 5808 5808 5808 5808 5807 5806 5806 5805 5805 5806 5806 5806 5805 5804 5804 5803 5803 5802 5802 5801 5800 5799 5798 5797 5796 5795 5794 5793 5792 5791 5790 5789 5788 5786 5785 5785 5784 5783 5783 5782
5797 5796 5795 5795 5794 5792 5791 5790 5789 5790 5791 5790 5790 5790 5791 5792 5794 5796 5798 5800 5801 5800 5800 5802 5801 5801 5803 5804 5805 5807 5807 5808 5809 5809 5809 5810 5810 5811 5811 5811 5810 5810 5810 5810 5809 5809 5808 5808 5808 5807 5807 5806 5805 5804 5804 5803 5803 5803 5803 5802 5801 5800 5799 5799 5798 5798 5797 5796 5795 5794 5793 5792 5791 5790 5789 5788 5787 5786 5784 5783 5783 5782 5781 5780 5779 5779
5797 5796 5796 5795 5793 5792 5790 5789 5789 5789 5790 5789 5789 5789 5790 5791 5793 5794 5796 5798 5800 5801 5800 5800 5801 5802 5802 5804 5807 5808 5809 5809 5809 5809 5809 5810 5811 5812 5813 5812 5811 5811 5811 5810 5810 5809 5808 5808 5807 5807 5806 5806 5805 5804 5803 5802 5801 5801 5800 5799 5799 5798 5797 5796 5795 5794 5793 5792 5792 5791 5790 5789 5788 5787 5786 5785 5784 5782 5781 5780 5779 5778 5778 5778 5777 5776
5798 5796 5796 5794 5793 5791 5790 5789 5789 5789 5789 5789 5789 5789 5790 5792 5793 5793 5795 5797 5799 5801 5801 5800 5801 5802 5802 5804 5807 5809 5810 5809 5810 5811 5811 5812 5813 5813 5812 5812 5811 5810 5810 5810 5809 5809 5808 5808 5807 5806 5806 5805 5804 5803 5802 5801 5800 5799 5798 5797 5796 5795 5795 5794 5793 5792 5791 5789 5788 5788 5787 5786 5785 5784 5783 5782 5780 5779 5777 5776 5775 5774 5774 5774 5773 5772
5799 5797 5796 5794 5793 5791 5791 5790 5789 5789 5788 5788 5788 5789 5790 5792 5792 5793 5794 5796 5798 5800 5801 5801 5801 5802 5803 5804 5806 5808 5809 5809 5810 5811 5812 5812 5812 5811 5811 5810 5810 5810 5810 5809 5809 5808 5808 5807 5807 5806 5805 5804 5803 5802 5801 5800 5799 5798 5797 5796 5795 5794 5793 5792 5791 5790 5788 5787 5786 5784 5783 5782 5781 5780 5779 5778 5777 5776 5774 5773 5771 5770 5769 5769 5768 5768
5800 5799 5797 5795 5793 5793 5792 5791 5790 5790 5789 5789 5789 5789 5790 5791 5792 5793 5794 5796 5798 5800 5800 5801 5802 5803 5803 5804 5806 5806 5808 5808 5809 5810 5810 5811 5811 5810 5810 5810 5810 5809 5809 5809 5808 5808 5807 5807 5807 5806 5805 5804 5803 5801 5800 5799 5798 5797 5796 5795 5794 5793 5791 5790 5789 5787 5786 5785 5784 5782 5781 5780 5778 5777 5775 5774 5773 5773 5771 5770 5768 5767 5766 5765 5764 5763
5802 5801 5799 5797 5795 5794 5793 5793 5792 5791 5790 5790 5790 5791 5791 5792 5793 5794 5795 5796 5798 5799 5800 5802 5804 5804 5804 5804 5805 5806 5806 5807 5808 5809 5810 5810 5810 5810 5810 5809 5809 5808 5809 5808 5808 5807 5807 5807 5806 5805 5804 5803 5802 5801 5800 5799 5798 5797 5796 5795 5793 5792 5790 5789 5787 5785 5784 5783 5781 5780 5779 5777 5776 5774 5773 5771 5770 5769 5767 5766 5764 5763 5762 5761 5759 5758
5803 5802 5801 5799 5797 5796 5795 5795 5794 5793 5793 5792 5792 5793 5793 5793 5794 5795 5796 5798 5799 5800 5801 5803 5804 5804 5805 5806 5806 5806 5807 5808 5808 5809 5810 5810 5809 5808 5808 5808 5808 5808 5808 5808 5808 5807 5806 5806 5806 5805 5804 5803 5802 5801 5799 5798 5797 5797 5795 5794 5793 5791 5789 5788 5786 5784 5783 5781 5779 5778 5776 5775 5773 5772 5770 5768 5766 5765 5763 5762 5760 5759 5758 5756 5755 5754
5804 5804 5803 5801 5800 5798 5797 5797 5797 5796 5796 5795 5794 5795 5795 5795 5796 5797 5798 5800 5801 5801 5802 5804 5805 5805 5806 5806 5807 5807 5808 5808 5809 5810 5810 5809 5809 5808 5807 5807 5807 5807 5807 5807 5807 5807 5806 5806 5805 5804 5804 5802 5801 5800 5799 5798 5797 5796 5795 5793 5791 5790 5788 5787 5785 5783 5782 5780 5778 5776 5774 5773 5771 5769 5768 5766 5764 5762 5760 5758 5756 5755 5753 5752 5751 5749
5805 5805 5804 5803 5802 5801 5799 5799 5799 5799 5799 5798 5797 5797 5797 5798 5799 5800 5801 5802 5803 5803 5803 5804 5805 5806 5806 5807 5807 5807 5808 5809 5810 5810 5809 5808 5808 5808 5808 5807 5807 5806 5806 5806 5806 5806 5806 5805 5805 5804 5803 5802 5801 5800 5799 5798 5796 5795 5794 5792 5790 5789 5787 5785 5784 5782 5780 5778 5776 5774 5772 5771 5769 5767 5765 5763 5761 5759 5757 5754 5752 5750 5749 5747 5746 5744
5806 5806 5805 5804 5804 5803 5801 5801 5801 5801 5801 5800 5800 5800 5800 5800 5801 5802 5802 5803 5804 5804 5804 5805 5806 5807 5807 5807 5808 5808 5808 5809 5809 5809 5809 5808 5808 5808 5808 5807 5806 5806 5806 5806 5806 5806 5805 5805 5804 5803 5802 5801 5800 5799 5799 5797 5796 5795 5793 5792 5790 5788 5786 5784 5782 5780 5779 5777 5775 5773 5771 5769 5767 5765 5763 5761 5759 5756 5754 5752 5749 5747 5745 5743 5741 5739
5807 5807 5806 5806 5805 5804 5803 5803 5802 5802 5802 5802 5801 5802 5802 5802 5802 5803 5804 5804 5804 5804 5804 5805 5806 5807 5807 5807 5808 5808 5808 5808 5809 5809 5809 5809 5808 5808 5808 5807 5806 5806 5806 5806 5806 5805 5805 5804 5803 5803 5802 5801 5800 5799 5798 5796 5795 5794 5792 5791 5789 5787 5785 5783 5781 5779 5777 5775 5773 5771 5769 5767 5765 5763 5761 5758 5756 5754 5751 5749 5746 5744 5741 5739 5737 5735
5808 5808 5807 5807 5806 5805 5805 5804 5804 5803 5803 5803 5803 5803 5803 5804 5804 5804 5805 5805 5804 5805 5805 5805 5806 5806 5806 5807 5807 5808 5808 5809 5809 5809 5808 5808 5808 5807 5807 5807 5806 5806 5806 5805 5805 5805 5804 5803 5802 5802 5801 5800 5799 5797 5796 5795 5794 5792 5791 5789 5787 5786 5784 5782 5780 5778 5776 5774 5771 5769 5767 5765 5763 5761 5759 5756 5754 5752 5749 5747 5744 5741 5738 5735 5733 5731
5809 5809 5809 5808 5807 5807 5807 5806 5805 5805 5805 5805 5805 5805 5805 5805 5805 5806 5806 5806 5806 5806 5807 5807 5807 5807 5807 5808 5808 5808 5808 5808 5808 5807 5807 5807 5808 5807 5806 5806 5806 5806 5805 5805 5804 5804 5803 5802 5801 5800 5799 5798 5797 5796 5794 5793 5792 5791 5789 5787 5786 5784 5782 5780 5778 5776 5774 5772 5769 5767 5765 5763 5761 5759 5756 5754 5752 5749 5747 5744 5742 5739 5736 5733 5730 5727
5810 5810 5809 5808 5808 5808 5808 5807 5807 5806 5806 5806 5806 5806 5806 5806 5806 5807 5807 5807 5807 5808 5808 5808 5808 5808 5807 5807 5807 5807 5807 5806 5806 5806 5806 5807 5807 5807 5807 5806 5806 5805 5805 5804 5803 5803 5802 5801 5800 5799 5798 5797 5795 5794 5793 5792 5790 5789 5787 5786 5784 5782 5780 5778 5776 5774 5772 5769 5767 5765 5763 5761 5758 5756 5754 5752 5749 5747 5744 5742 5739 5736 5733 5730 5727 5724
5810 5810 5809 5809 5809 5809 5808 5808 5807 5807 5807 5807 5807 5807 5807 5807 5807 5807 5808 5808 5808 5808 5808 5809 5808 5808 5808 5808 5807 5807 5807 5806 5806 5806 5807 5807 5807 5807 5806 5806 5805 5805 5804 5803 5802 5802 5801 5800 5799 5797 5796 5795 5794 5793 5791 5790 5788 5787 5785 5784 5782 5780 5778 5776 5774 5772 5769 5767 5765 5763 5760 5758 5756 5754 5751 5749 5747 5744 5742 5739 5736 5734 5731 5728 5725 5722
5810 5810 5810 5809 5809 5809 5809 5808 5808 5807 5808 5808 5808 5808 5808 5808 5808 5808 5808 5809 5809 5809 5809 5809 5808 5808 5808 5808 5807 5807 5807 5807 5807 5807 5807 5807 5807 5806 5806 5805 5805 5804 5803 5802 5801 5800 5800 5799 5797 5796 5795 5793 5792 5791 5789 5787 5786 5784 5783 5781 5779 5777 5775 5773 5771 5769 5767 5765 5762 5760 5758 5756 5753 5751 5749 5746 5744 5741 5739 5736 5734 5731 5728 5725 5722 5719
5811 5810 5810 5810 5810 5809 5809 5809 5808 5808 5808 5808 5808 5809 5808 5808 5808 5809 5809 5809 5809 5809 5809 5809 5808 5809 5808 5808 5808 5808 5808 5807 5807 5807 5807 5807 5806 5806 5805 5804 5803 5802 5801 5801 5800 5799 5798 5797 5795 5794 5793 5791 5790 5788 5787 5785 5783 5782 5780 5778 5776 5774 5773 5771 5769 5767 5764 5762 5760 5758 5756 5753 5751 5748 5746 5743 5741 5738 5736 5733 5731 5728 5726 5722 5719 5716
5812 5811 5810 5810 5810 5810 5810 5809 5809 5809 5809 5809 5809 5809 5808 5808 5809 5809 5809 5809 5809 5809 5809 5809 5808 5808 5808 5808 5808 5807 5807 5807 5807 5806 5806 5806 5805 5805 5804 5803 5802 5801 5800 5799 5798 5797 5796 5795 5794 5792 5791 5789 5788 5786 5784 5783 5781 5779 5777 5775 5773 5772 5770 5768 5766 5764 5762 5760 5757 5755 5753 5751 5748 5746 5743 5740 5738 5735 5733 5730 5728 5725 5723 5720 5717 5714
5812 5812 5810 5810 5810 5810 5810 5810 5809 5809 5809 5809 5809 5809 5808 5808 5809 5809 5809 5809 5809 5809 5809 5808 5808 5808 5808 5808 5807 5807 5807 5806 5806 5806 5805 5805 5804 5803 5803 5802 5801 5800 5799 5798 5797 5796 5795 5793 5792 5790 5789 5787 5786 5784 5782 5780 5778 5777 5775 5773 5771 5769 5767 5765 5763 5761 5759 5757 5755 5753 5750 5748 5746 5743 5741 5738 5735 5732 5729 5727 5724 5722 5719 5717 5714 5711
5813 5812 5811 5811 5811 5810 5810 5810 5809 5809 5809 5809 5809 5809 5809 5809 5809 5809 5809 5809 5808 5808 5808 5808 5807 5807 5807 5806 5806 5806 5806 5805 5805 5805 5804 5804 5803 5802 5802 5801 5800 5799 5798 5797 5796 5794 5793 5791 5790 5788 5787 5785 5784 5782 5780 5778 5776 5774 5773 5771 5768 5766 5764 5762 5760 5758 5756 5754 5752 5749 5747 5745 5742 5740 5737 5735 5732 5729 5727 5724 5721 5718 5716 5713 5711 5708
5813 5813 5812 5811 5811 5810 5810 5810 5810 5809 5809 5809 5809 5809 5809 5809 5809 5808 5808 5809 5808 5808 5808 5807 5806 5806 5806 5805 5805 5805 5805 5804 5804 5803 5803 5802 5802 5801 5800 5800 5799 5797 5796 5795 5794 5792 5791 5790 5788 5787 5785 5783 5781 5780 5778 5776 5774 5772 5770 5768 5766 5763 5761 5759 5757 5755 5753 5751 5749 5746 5744 5741 5739 5736 5734 5732 5729 5727 5724 5721 5718 5715 5712 5710 5707 5705
5813 5813 5812 5812 5811 5811 5810 5810 5810 5810 5809 5809 5808 5808 5808 5808 5808 5808 5808 5808 5808 5808 5807 5806 5805 5805 5805 5804 5804 5804 5804 5804 5803 5802 5802 5801 5801 5800 5799 5798 5797 5796 5794 5793 5792 5791 5789 5788 5786 5784 5783 5781 5779 5777 5775 5773 5771 5769 5767 5765 5763 5761 5759 5756 5754 5752 5749 5747 5745 5743 5740 5738 5735 5733 5731 5728 5726 5723 5721 5718 5715 5712 5709 5706 5704 5701
5813 5813 5812 5812 5811 5811 5811 5810 5810 5809 5809 5809 5808 5808 5808 5808 5808 5808 5807 5807 5806 5806 5806 5804 5804 5804 5804 5804 5803 5802 5802 5802 5802 5801 5801 5800 5799 5798 5797 5796 5795 5794 5793 5791 5790 5789 5787 5786 5784 5782 5780 5779 5777 5775 5772 5770 5768 5766 5764 5762 5760 5758 5755 5753 5751 5749 5746 5744 5742 5739 5736 5734 5732 5729 5727 5725 5722 5720 5717 5715 5712 5709 5706 5703 5700 5697
5814 5813 5813 5813 5812 5812 5811 5811 5810 5809 5809 5808 5808 5807 5807 5807 5807 5807 5806 5806 5805 5805 5805 5804 5804 5803 5803 5802 5802 5802 5801 5800 5800 5799 5799 5798 5797 5797 5796 5795 5793 5792 5791 5790 5788 5787 5785 5784 5782 5780 5778 5776 5774 5772 5770 5767 5765 5763 5761 5759 5757 5755 5752 5750 5748 5745 5743 5740 5738 5735 5732 5730 5728 5726 5723 5721 5718 5716 5713 5711 5708 5705 5703 5700 5697 5694
5815 5814 5814 5813 5813 5813 5812 5811 5810 5810 5809 5808 5807 5807 5807 5806 5806 5806 5805 5805 5804 5804 5804 5804 5803 5802 5801 5801 5801 5800 5800 5799 5798 5798 5797 5796 5796 5795 5794 5793 5791 5790 5789 5788 5786 5785 5783 5782 5780 5778 5776 5774 5772 5770 5767 5765 5763 5761 5759 5757 5754 5752 5749 5747 5744 5741 5739 5736 5734 5731 5728 5726 5724 5721 5719 5717 5714 5712 5709 5707 5704 5701 5699 5696 5693 5690
5815 5815 5814 5814 5813 5813 5812 5811 5811 5810 5809 5808 5807 5807 5806 5806 5805 5805 5804 5804 5804 5803 5803 5802 5802 5801 5800 5800 5799 5799 5798 5797 5796 5796 5795 5795 5794 5793 5792 5791 5789 5788 5787 5785 5784 5782 5781 5779 5777 5775 5773 5771 5769 5767 5765 5763 5761 5758 5756 5754 5751 5748 5746 5743 5740 5738 5735 5732 5729 5727 5724 5722 5719 5717 5714 5712 5710 5707 5705 5702 5700 5697 5694 5692 5689 5686
5816 5815 5814 5814 5813 5813 5812 5811 5811 5810 5809 5808 5808 5807 5806 5806 5805 5804 5804 5803 5803 5802 5801 5801 5800 5800 5799 5798 5798 5797 5796 5796 5795 5794 5794 5793 5792 5791 5790 5788 5787 5786 5784 5783 5781 5780 5778 5776 5774 5773 5771 5768 5766 5765 5763 5761 5758 5756 5754 5751 5748 5745 5743 5740 5737 5734 5731 5728 5725 5723 5720 5717 5715 5712 5710 5708 5705 5703 5700 5698 5695 5693 5690 5687 5685 5682
5816 5816 5815 5814 5814 5813 5812 5811 5811 5810 5809 5808 5808 5807 5806 5805 5805 5804 5803 5802 5801 5801 5800 5799 5799 5798 5798 5797 5796 5796 5795 5794 5794 5793 5792 5791 5790 5788 5787 5786 5784 5783 5782 5780 5779 5777 5775 5773 5772 5770 5768 5766 5764 5762 5760 5758 5756 5753 5751 5749 5745 5742 5740 5737 5733 5730 5727 5724 5721 5718 5716 5713 5711 5709 5706 5704 5701 5699 5696 5694 5691 5689 5686 5683 5680 5677
5817 5816 5815 5815 5814 5813 5812 5811 5811 5810 5809 5808 5808 5807 5806 5805 5804 5803 5802 5801 5800 5799 5799 5798 5797 5797 5796 5796 5795 5795 5794 5793 5792 5792 5791 5790 5789 5787 5785 5784 5782 5781 5780 5778 5776 5775 5773 5771 5769 5768 5766 5764 5762 5760 5757 5755 5753 5751 5748 5745 5742 5739 5736 5733 5730 5726 5723 5720 5717 5715 5712 5710 5707 5705 5702 5700 5697 5695 5692 5690 5687 5685 5682 5679 5675 5672
5817 5816 5815 5814 5814 5813 5812 5811 5810 5809 5808 5808 5807 5806 5805 5804 5803 5802 5801 5801 5800 5799 5798 5797 5796 5796 5795 5795 5794 5793 5793 5792 5791 5790 5789 5788 5787 5786 5784 5782 5781 5779 5778 5776 5774 5773 5771 5769 5767 5766 5764 5761 5759 5757 5755 5753 5750 5748 5744 5741 5739 5736 5732 5729 5726 5723 5720 5717 5714 5711 5709 5706 5704 5701 5699 5696 5694 5691 5689 5686 5683 5680 5677 5673 5670 5666
5817 5816 5815 5814 5813 5812 5811 5810 5809 5808 5807 5807 5806 5805 5804 5803 5802 5801 5800 5800 5799 5798 5797 5797 5796 5795 5795 5794 5793 5792 5791 5791 5790 5789 5788 5786 5785 5784 5782 5781 5779 5778 5776 5774 5773 5771 5768 5767 5765 5763 5761 5759 5757 5754 5752 5750 5747 5744 5741 5738 5735 5732 5729 5726 5723 5720 5717 5714 5711 5708 5706 5703 5701 5698 5696 5694 5691 5688 5685 5682 5678 5675 5671 5667 5663 5659
5817 5816 5815 5814 5813 5811 5810 5809 5808 5807 5807 5806 5805 5805 5804 5802 5801 5800 5799 5798 5798 5797 5796 5796 5795 5795 5794 5793 5792 5791 5790 5790 5789 5788 5786 5785 5783 5781 5780 5779 5777 5775 5774 5772 5771 5769 5767 5764 5763 5761 5759 5757 5754 5752 5749 5747 5744 5741 5738 5735 5732 5729 5726 5723 5720 5717 5714 5711 5708 5706 5703 5701 5699 5696 5693 5690 5687 5684 5681 5677 5673 5669 5664 5660 5656 5652
5816 5815 5814 5813 5812 5811 5810 5808 5807 5806 5807 5806 5805 5804 5802 5801 5800 5799 5798 5797 5796 5795 5795 5795 5794 5793 5793 5792 5791 5790 5789 5789 5788 5787 5785 5784 5782 5780 5778 5776 5775 5773 5771 5770 5768 5766 5765 5762 5760 5758 5756 5754 5752 5749 5747 5744 5741 5738 5735 5732 5729 5726 5723 5720 5717 5714 5712 5709 5706 5704 5701 5699 5696 5694 5690 5687 5683 5679 5675 5671 5667 5662 5658 5653 5648 5644
5816 5815 5814 5812 5811 5810 5809 5807 5806 5804 5804 5804 5804 5802 5801 5799 5798 5798 5796 5795 5794 5793 5793 5793 5793 5792 5792 5791 5790 5789 5788 5787 5787 5786 5784 5783 5781 5779 5777 5775 5773 5771 5770 5768 5766 5764 5762 5760 5758 5756 5754 5751 5749 5746 5744 5741 5738 5735 5732 5729 5726 5723 5720 5717 5715 5712 5710 5707 5705 5702 5699 5696 5693 5690 5686 5683 5678 5674 5670 5665 5660 5655 5651 5646 5641 5636
5815 5814 5813 5812 5810 5809 5808 5807 5805 5803 5802 5802 5802 5801 5800 5798 5797 5796 5795 5794 5793 5792 5792 5792 5792 5791 5790 5789 5789 5788 5786 5785 5785 5784 5783 5781 5779 5777 5775 5773 5771 5769 5767 5766 5764 5761 5759 5758 5756 5753 5751 5749 5746 5744 5741 5739 5736 5733 5730 5727 5724 5721 5718 5715 5713 5711 5708 5705 5703 5700 5696 5693 5689 5686 5682 5678 5673 5668 5664 5659 5653 5648 5643 5638 5633 5629
5814 5813 5812 5811 5809 5808 5808 5806 5805 5804 5802 5801 5800 5799 5798 5797 5796 5795 5794 5793 5792 5792 5791 5790 5790 5789 5789 5788 5787 5786 5785 5784 5783 5782 5781 5779 5777 5775 5773 5771 5769 5767 5764 5763 5761 5759 5756 5754 5753 5750 5748 5746 5743 5741 5739 5736 5733 5730 5727 5724 5721 5719 5716 5714 5711 5708 5706 5703 5700 5697 5693 5689 5685 5681 5677 5673 5668 5663 5657 5652 5646 5641 5635 5630 5626 5621
5814 5813 5812 5811 5809 5808 5807 5805 5804 5803 5802 5801 5800 5799 5797 5796 5795 5794 5793 5792 5791 5790 5789 5789 5789 5788 5787 5786 5785 5784 5783 5783 5781 5780 5779 5777 5775 5773 5771 5768 5766 5764 5762 5760 5758 5756 5754 5752 5750 5748 5746 5743 5741 5739 5736 5733 5730 5727 5725 5722 5719 5717 5714 5711 5708 5705 5702 5699 5697 5693 5690 5686 5681 5677 5672 5667 5662 5656 5650 5645 5639 5634 5629 5624 5619 5615
5813 5812 5811 5810 5809 5807 5806 5805 5803 5802 5801 5800 5799 5798 5797 5795 5794 5793 5791 5790 5790 5789 5788 5787 5787 5786 5785 5784 5784 5782 5781 5780 5779 5777 5776 5774 5772 5770 5768 5766 5764 5762 5760 5758 5756 5754 5751 5749 5747 5745 5743 5741 5738 5736 5733 5730 5728 5725 5722 5720 5717 5714 5711 5708 5705 5702 5698 5696 5693 5690 5686 5682 5677 5673 5667 5662 5656 5650 5644 5638 5633 5628 5623 5618 5614 5610
5813 5811 5810 5809 5808 5806 5804 5803 5802 5801 5801 5800 5798 5797 5796 5794 5793 5791 5790 5789 5788 5787 5787 5786 5786 5785 5784 5783 5782 5781 5780 5779 5777 5776 5774 5772 5770 5768 5766 5765 5763 5761 5759 5757 5755 5753 5750 5748 5745 5743 5741 5738 5736 5733 5730 5728 5725 5722 5720 5717 5714 5711 5708 5705 5702 5699 5695 5692 5689 5686 5682 5678 5673 5668 5663 5657 5650 5644 5638 5633 5627 5622 5618 5614 5610 5607
5813 5811 5809 5808 5807 5805 5803 5801 5801 5800 5800 5799 5797 5796 5795 5793 5791 5790 5788 5788 5787 5786 5785 5784 5784 5783 5782 5781 5781 5780 5779 5778 5776 5774 5773 5771 5768 5767 5765 5763 5761 5759 5757 5755 5753 5751 5749 5746 5744 5741 5738 5736 5733 5730 5728 5725 5722 5719 5716 5714 5711 5708 5705 5702 5699 5696 5692 5688 5685 5681 5677 5673 5668 5663 5657 5651 5645 5639 5633 5628 5623 5618 5614 5611 5607 5604
5812 5810 5809 5807 5807 5805 5803 5801 5800 5799 5800 5799 5796 5795 5793 5792 5791 5789 5787 5786 5785 5784 5783 5782 5782 5781 5781 5780 5779 5778 5777 5776 5774 5772 5770 5768 5767 5765 5763 5761 5759 5757 5754 5752 5750 5748 5746 5744 5741 5738 5735 5733 5730 5728 5725 5722 5719 5716 5713 5710 5707 5704 5701 5698 5695 5692 5688 5684 5680 5676 5672 5667 5662 5657 5652 5646 5640 5635 5629 5624 5619 5615 5612 5608 5605 5602
5811 5809 5807 5807 5806 5805 5804 5801 5799 5797 5797 5797 5796 5794 5792 5791 5790 5788 5786 5784 5783 5783 5781 5780 5779 5779 5778 5778 5777 5776 5775 5773 5771 5770 5768 5766 5764 5763 5761 5759 5756 5754 5752 5749 5747 5745 5743 5741 5739 5736 5733 5730 5727 5724 5721 5718 5715 5713 5709 5706 5703 5700 5697 5695 5691 5687 5684 5680 5675 5671 5667 5662 5657 5652 5647 5642 5636 5630 5624 5620 5615 5612 5609 5605 5602 5599
5810 5809 5807 5806 5805 5804 5803 5801 5800 5797 5795 5795 5794 5793 5791 5790 5788 5787 5785 5784 5782 5781 5780 5778 5777 5776 5776 5775 5775 5774 5772 5771 5769 5767 5765 5763 5762 5760 5758 5756 5754 5751 5749 5747 5745 5742 5740 5738 5736 5733 5731 5728 5724 5721 5718 5715 5712 5709 5706 5703 5700 5697 5694 5690 5686 5683 5679 5676 5671 5666 5661 5657 5652 5647 5643 5638 5632 5625 5620 5616 5612 5608 5605 5602 5598 5595
5807 5807 5805 5804 5804 5803 5801 5800 5799 5797 5795 5793 5792 5791 5789 5788 5787 5785 5784 5783 5781 5779 5778 5777 5776 5775 5774 5773 5773 5772 5770 5769 5767 5765 5763 5761 5759 5757 5755 5753 5751 5749 5747 5744 5742 5739 5737 5735 5733 5730 5727 5724 5721 5718 5715 5712 5709 5706 5702 5699 5696 5693 5690 5686 5683 5679 5675 5671 5667 5662 5657 5652 5647 5643 5638 5633 5627 5621 5616 5611 5606 5603 5600 5598 5594 5591
5806 5805 5803 5803 5802 5801 5800 5799 5797 5794 5792 5792 5791 5789 5787 5786 5785 5784 5782 5781 5780 5778 5777 5776 5775 5774 5773 5772 5771 5769 5768 5766 5764 5762 5760 5758 5756 5754 5752 5750 5748 5746 5744 5741 5739 5736 5734 5732 5730 5727 5724 5721 5718 5715 5711 5708 5705 5702 5699 5696 5693 5689 5686 5683 5679 5675 5671 5667 5663 5658 5652 5647 5642 5637 5632 5626 5620 5615 5611 5606 5602 5598 5595 5593 5590 5587
5804 5803 5802 5801 5800 5798 5798 5797 5796 5792 5790 5789 5789 5788 5786 5784 5782 5782 5781 5779 5778 5776 5775 5774 5773 5772 5771 5770 5768 5767 5765 5763 5762 5760 5758 5756 5754 5751 5749 5748 5746 5743 5741 5739 5736 5734 5731 5729 5726 5724 5721 5718 5715 5712 5709 5706 5703 5699 5696 5693 5689 5686 5682 5679 5675 5671 5667 5664 5659 5653 5648 5642 5637 5631 5625 5619 5615 5611 5607 5603 5598 5594 5590 5588 5585 5582
5802 5801 5800 5799 5798 5796 5795 5795 5795 5791 5788 5787 5787 5786 5785 5783 5781 5780 5778 5777 5776 5774 5773 5772 5771 5770 5769 5768 5767 5765 5763 5761 5759 5758 5756 5754 5751 5749 5747 5746 5744 5742 5739 5737 5734 5731 5729 5726 5724 5721 5718 5715 5712 5709 5706 5703 5700 5697 5693 5689 5686 5682 5679 5675 5671 5667 5663 5659 5654 5649 5644 5638 5633 5627 5620 5616 5613 5609 5603 5599 5595 5590 5585 5583 5580 5576
5800 5799 5798 5797 5796 5795 5793 5792 5792 5790 5787 5785 5784 5784 5783 5781 5780 5778 5777 5775 5774 5772 5771 5770 5769 5767 5766 5765 5764 5763 5761 5760 5758 5756 5754 5751 5749 5747 5746 5744 5742 5739 5737 5734 5732 5729 5726 5724 5721 5718 5715 5712 5709 5706 5703 5700 5696 5693 5690 5687 5683 5680 5676 5672 5668 5665 5660 5655 5650 5645 5640 5634 5629 5624 5618 5614 5611 5605 5599 5595 5592 5586 5581 5577 5574 5570